| time (UTC) | temp F | wind direction | speed MPH | gust MPH | rain 1hr in | rain 24hr in | rain mn in | humidity % | barometer mb |
| 20260509192529 | 43 | 151 | 0.0 | 2.0 | 0.00 | 0.00 | 0.00 | 97 | 1026.5 |
| 20260509191532 | 43 | 307 | 1.0 | 3.0 | 0.00 | 0.00 | 0.00 | 98 | 1026.4 |
| 20260509190521 | 43 | 227 | 0.0 | 2.0 | 0.00 | 0.00 | 0.00 | 98 | 1026.1 |
| 20260509185536 | 44 | 164 | 1.0 | 3.0 | 0.00 | 0.00 | 0.00 | 97 | 1026.0 |
| 20260509184520 | 44 | 16 | 2.0 | 3.0 | 0.00 | 0.00 | 0.00 | 97 | 1026.1 |
| 20260509183529 | 44 | 19 | 0.0 | 2.0 | 0.00 | 0.00 | 0.00 | 98 | 1025.9 |
| 20260509182517 | 44 | 24 | 0.0 | 2.0 | 0.00 | 0.00 | 0.00 | 98 | 1025.9 |
| 20260509181534 | 44 | 193 | 1.0 | 2.0 | 0.00 | 0.00 | 0.00 | 97 | 1025.8 |
| 20260509180536 | 43 | 206 | 1.0 | 2.0 | 0.00 | 0.00 | 0.00 | 98 | 1025.8 |
| 20260509175525 | 44 | 176 | 1.0 | 3.0 | 0.00 | 0.00 | 0.00 | 98 | 1025.7 |
| 20260509174534 | 45 | 200 | 3.0 | 4.0 | 0.00 | 0.00 | 0.00 | 98 | 1025.6 |
| 20260509173530 | 45 | 191 | 3.0 | 5.0 | 0.00 | 0.00 | 0.00 | 98 | 1025.6 |
| 20260509172532 | 45 | 196 | 1.0 | 3.0 | 0.00 | 0.00 | 0.00 | 97 | 1025.7 |
| 20260509171521 | 46 | 6 | 0.0 | 2.0 | 0.00 | 0.00 | 0.00 | 97 | 1025.7 |
| 20260509170539 | 46 | 9 | 1.0 | 4.0 | 0.00 | 0.00 | 0.00 | 97 | 1025.7 |
| 20260509165521 | 45 | 11 | 2.0 | 5.0 | 0.00 | 0.00 | 0.00 | 97 | 1025.7 |
| 20260509164530 | 46 | 22 | 2.0 | 4.0 | 0.00 | 0.00 | 0.00 | 97 | 1025.7 |
| 20260509163519 | 45 | 8 | 2.0 | 4.0 | 0.00 | 0.00 | 0.00 | 97 | 1025.7 |
| 20260509162528 | 45 | 351 | 2.0 | 4.0 | 0.00 | 0.00 | 0.00 | 97 | 1025.5 |
| 20260509161517 | 45 | 195 | 1.0 | 2.0 | 0.00 | 0.00 | 0.00 | 97 | 1025.5 |
| 20260509160527 | 46 | 202 | 1.0 | 2.0 | 0.00 | 0.00 | 0.00 | 97 | 1025.6 |
| 20260509155538 | 46 | 169 | 2.0 | 3.0 | 0.00 | 0.00 | 0.00 | 97 | 1025.7 |
| 20260509154540 | 47 | 142 | 1.0 | 3.0 | 0.00 | 0.00 | 0.00 | 97 | 1025.7 |
| 20260509153534 | 47 | 163 | 2.0 | 4.0 | 0.00 | 0.00 | 0.00 | 97 | 1025.8 |
| 20260509152524 | 47 | 146 | 1.0 | 3.0 | 0.00 | 0.00 | 0.00 | 96 | 1025.9 |
| 20260509151533 | 47 | 94 | 1.0 | 2.0 | 0.00 | 0.00 | 0.00 | 96 | 1025.7 |
| 20260509150536 | 47 | 57 | 1.0 | 3.0 | 0.00 | 0.00 | 0.00 | 96 | 1026.0 |
| 20260509145532 | 47 | 135 | 0.0 | 2.0 | 0.00 | 0.00 | 0.00 | 96 | 1025.7 |
| 20260509144527 | 48 | 36 | 1.0 | 3.0 | 0.00 | 0.00 | 0.00 | 96 | 1025.9 |
| 20260509143528 | 48 | 171 | 1.0 | 3.0 | 0.00 | 0.00 | 0.00 | 96 | 1025.7 |
| 20260509142518 | 48 | 177 | 1.0 | 3.0 | 0.00 | 0.00 | 0.00 | 95 | 1025.9 |
| 20260509141529 | 47 | 171 | 3.0 | 4.0 | 0.00 | 0.00 | 0.00 | 96 | 1025.9 |
| 20260509140517 | 48 | 175 | 3.0 | 5.0 | 0.00 | 0.00 | 0.00 | 96 | 1025.7 |
| 20260509135526 | 48 | 146 | 2.0 | 4.0 | 0.00 | 0.00 | 0.00 | 95 | 1025.8 |
| 20260509134536 | 49 | 162 | 2.0 | 4.0 | 0.00 | 0.00 | 0.00 | 95 | 1025.8 |
| 20260509133525 | 49 | 166 | 2.0 | 4.0 | 0.00 | 0.00 | 0.00 | 95 | 1025.8 |
| 20260509132535 | 49 | 169 | 2.0 | 4.0 | 0.00 | 0.00 | 0.00 | 94 | 1025.8 |
| 20260509131523 | 50 | 75 | 2.0 | 4.0 | 0.00 | 0.00 | 0.00 | 94 | 1025.9 |
| 20260509130533 | 51 | 186 | 2.0 | 4.0 | 0.00 | 0.00 | 0.00 | 93 | 1026.1 |
| 20260509125522 | 51 | 164 | 2.0 | 4.0 | 0.00 | 0.00 | 0.00 | 93 | 1026.1 |
| 20260509124532 | 51 | 162 | 3.0 | 5.0 | 0.00 | 0.00 | 0.00 | 92 | 1026.0 |
| 20260509123521 | 52 | 116 | 1.0 | 4.0 | 0.00 | 0.00 | 0.00 | 91 | 1026.0 |
| 20260509122537 | 52 | 0.0 | 0.0 | 0.00 | 0.00 | 0.00 | 91 | 1026.0 | |
| 20260509121518 | 52 | 6 | 2.0 | 3.0 | 0.00 | 0.00 | 0.00 | 90 | 1026.0 |
| 20260509120527 | 52 | 0.0 | 1.0 | 0.00 | 0.00 | 0.00 | 89 | 1025.9 | |
| 20260509115524 | 53 | 353 | 2.0 | 3.0 | 0.00 | 0.00 | 0.00 | 88 | 1026.0 |
| 20260509114526 | 53 | 79 | 0.0 | 1.0 | 0.00 | 0.00 | 0.00 | 88 | 1025.9 |
| 20260509113535 | 52 | 151 | 0.0 | 1.0 | 0.00 | 0.00 | 0.00 | 88 | 1026.0 |
| 20260509112531 | 52 | 0.0 | 0.0 | 0.00 | 0.00 | 0.00 | 88 | 1026.1 | |
| 20260509111535 | 54 | 205 | 3.0 | 5.0 | 0.00 | 0.00 | 0.00 | 83 | 1025.9 |
| 20260509110523 | 55 | 0.0 | 1.0 | 0.00 | 0.00 | 0.00 | 82 | 1025.7 | |
| 20260509105533 | 55 | 0.0 | 0.0 | 0.00 | 0.00 | 0.00 | 83 | 1025.7 | |
| 20260509104522 | 55 | 0.0 | 1.0 | 0.00 | 0.00 | 0.00 | 83 | 1025.7 | |
| 20260509103538 | 55 | 0.0 | 0.0 | 0.00 | 0.00 | 0.00 | 83 | 1025.5 | |
| 20260509102519 | 55 | 0.0 | 0.0 | 0.00 | 0.00 | 0.00 | 82 | 1025.5 | |
| 20260509101528 | 55 | 0.0 | 1.0 | 0.00 | 0.00 | 0.00 | 81 | 1025.4 | |
| 20260509100518 | 55 | 30 | 0.0 | 1.0 | 0.00 | 0.00 | 0.00 | 84 | 1025.3 |
| 20260509095527 | 54 | 0.0 | 0.0 | 0.00 | 0.00 | 0.00 | 84 | 1025.3 | |
| 20260509094537 | 55 | 0.0 | 0.0 | 0.00 | 0.00 | 0.00 | 82 | 1025.2 | |
| 20260509093525 | 56 | 215 | 0.0 | 1.0 | 0.00 | 0.00 | 0.00 | 81 | 1025.1 |
| 20260509092536 | 56 | 0.0 | 0.0 | 0.00 | 0.00 | 0.00 | 81 | 1025.0 | |
| 20260509091524 | 56 | 145 | 0.0 | 1.0 | 0.00 | 0.00 | 0.00 | 79 | 1025.1 |
| 20260509090533 | 57 | 0.0 | 1.0 | 0.00 | 0.00 | 0.00 | 78 | 1025.0 | |
| 20260509085522 | 57 | 9 | 0.0 | 1.0 | 0.00 | 0.00 | 0.00 | 77 | 1024.9 |
| 20260509084539 | 57 | 0.0 | 1.0 | 0.00 | 0.00 | 0.00 | 76 | 1024.8 | |
| 20260509083521 | 58 | 7 | 0.0 | 2.0 | 0.00 | 0.00 | 0.00 | 75 | 1024.7 |
| 20260509082532 | 58 | 0.0 | 1.0 | 0.00 | 0.00 | 0.00 | 74 | 1024.4 | |
| 20260509081520 | 59 | 98 | 0.0 | 2.0 | 0.00 | 0.00 | 0.00 | 73 | 1024.3 |
| 20260509080529 | 59 | 26 | 0.0 | 3.0 | 0.00 | 0.00 | 0.00 | 72 | 1024.1 |
| 20260509075518 | 59 | 317 | 0.0 | 2.0 | 0.00 | 0.00 | 0.00 | 71 | 1023.9 |
| 20260509074527 | 60 | 353 | 1.0 | 2.0 | 0.00 | 0.00 | 0.00 | 69 | 1024.0 |
| 20260509073544 | 60 | 356 | 0.0 | 2.0 | 0.00 | 0.00 | 0.00 | 68 | 1023.9 |
| 20260509072525 | 61 | 0.0 | 1.0 | 0.00 | 0.00 | 0.00 | 67 | 1023.8 | |
| 20260509071536 | 62 | 342 | 0.0 | 2.0 | 0.00 | 0.00 | 0.00 | 65 | 1023.6 |
| 20260509070524 | 63 | 334 | 1.0 | 4.0 | 0.00 | 0.00 | 0.00 | 64 | 1023.4 |
| 20260509065554 | 63 | 325 | 2.0 | 5.0 | 0.00 | 0.00 | 0.00 | 62 | 1023.3 |
| 20260509064522 | 64 | 325 | 2.0 | 4.0 | 0.00 | 0.00 | 0.00 | 61 | 1023.2 |
| 20260509063532 | 64 | 335 | 2.0 | 3.0 | 0.00 | 0.00 | 0.00 | 60 | 1023.3 |
| 20260509062520 | 64 | 331 | 3.0 | 5.0 | 0.00 | 0.00 | 0.00 | 60 | 1023.2 |
| 20260509061536 | 64 | 311 | 3.0 | 6.0 | 0.00 | 0.00 | 0.00 | 59 | 1023.1 |
| 20260509060519 | 65 | 320 | 4.0 | 6.0 | 0.00 | 0.00 | 0.00 | 59 | 1023.1 |
| 20260509055528 | 65 | 317 | 3.0 | 6.0 | 0.00 | 0.00 | 0.00 | 58 | 1023.0 |
| 20260509054536 | 64 | 298 | 5.0 | 8.0 | 0.00 | 0.00 | 0.00 | 58 | 1023.0 |
| 20260509053525 | 64 | 330 | 3.0 | 6.0 | 0.00 | 0.00 | 0.00 | 58 | 1023.0 |
| 20260509052542 | 65 | 257 | 3.0 | 6.0 | 0.00 | 0.00 | 0.00 | 56 | 1023.0 |
| 20260509051523 | 65 | 297 | 4.0 | 6.0 | 0.00 | 0.00 | 0.00 | 56 | 1023.0 |
| 20260509050540 | 64 | 161 | 1.0 | 3.0 | 0.00 | 0.00 | 0.00 | 56 | 1022.8 |
| 20260509045522 | 64 | 61 | 2.0 | 5.0 | 0.00 | 0.00 | 0.00 | 56 | 1022.8 |
| 20260509044532 | 64 | 305 | 3.0 | 4.0 | 0.00 | 0.00 | 0.00 | 56 | 1022.9 |
| 20260509043521 | 63 | 14 | 2.0 | 5.0 | 0.00 | 0.00 | 0.00 | 59 | 1023.0 |
| 20260509042530 | 64 | 65 | 3.0 | 7.0 | 0.00 | 0.00 | 0.00 | 58 | 1023.0 |
| 20260509041520 | 63 | 10 | 2.0 | 6.0 | 0.00 | 0.00 | 0.00 | 60 | 1023.1 |
| 20260509040529 | 63 | 292 | 4.0 | 8.0 | 0.00 | 0.00 | 0.00 | 60 | 1023.0 |
| 20260509035519 | 62 | 240 | 2.0 | 5.0 | 0.00 | 0.00 | 0.00 | 61 | 1023.2 |
| 20260509034527 | 63 | 10 | 3.0 | 6.0 | 0.00 | 0.00 | 0.00 | 61 | 1023.0 |
| 20260509033516 | 63 | 334 | 4.0 | 8.0 | 0.00 | 0.00 | 0.00 | 61 | 1023.1 |
| 20260509032525 | 63 | 348 | 3.0 | 9.0 | 0.00 | 0.00 | 0.00 | 62 | 1023.1 |
| 20260509031536 | 62 | 322 | 3.0 | 6.0 | 0.00 | 0.00 | 0.00 | 63 | 1023.2 |
| 20260509030525 | 62 | 292 | 3.0 | 8.0 | 0.00 | 0.00 | 0.00 | 63 | 1023.4 |
| 20260509025533 | 62 | 319 | 4.0 | 8.0 | 0.00 | 0.00 | 0.00 | 62 | 1023.4 |
| 20260509024522 | 61 | 348 | 3.0 | 8.0 | 0.00 | 0.00 | 0.00 | 62 | 1023.6 |
| 20260509023533 | 61 | 305 | 4.0 | 9.0 | 0.00 | 0.00 | 0.00 | 62 | 1023.7 |
| 20260509022522 | 61 | 327 | 5.0 | 10.0 | 0.00 | 0.00 | 0.00 | 61 | 1023.8 |
| 20260509021531 | 59 | 276 | 3.0 | 6.0 | 0.00 | 0.00 | 0.00 | 64 | 1024.0 |
| 20260509020520 | 59 | 270 | 3.0 | 7.0 | 0.00 | 0.00 | 0.00 | 64 | 1024.3 |
| 20260509015529 | 59 | 323 | 3.0 | 8.0 | 0.00 | 0.00 | 0.00 | 65 | 1024.3 |
| 20260509014518 | 59 | 108 | 3.0 | 4.0 | 0.00 | 0.00 | 0.00 | 64 | 1024.4 |
| 20260509013528 | 59 | 341 | 3.0 | 6.0 | 0.00 | 0.00 | 0.00 | 63 | 1024.5 |
| 20260509012517 | 58 | 315 | 3.0 | 4.0 | 0.00 | 0.00 | 0.00 | 67 | 1024.6 |
| 20260509011534 | 58 | 74 | 2.0 | 4.0 | 0.00 | 0.00 | 0.00 | 67 | 1024.6 |
| 20260509010542 | 55 | 297 | 2.0 | 5.0 | 0.00 | 0.00 | 0.00 | 73 | 1024.8 |
| 20260509005525 | 55 | 67 | 3.0 | 6.0 | 0.00 | 0.00 | 0.00 | 73 | 1024.8 |
| 20260509004534 | 54 | 336 | 3.0 | 6.0 | 0.00 | 0.00 | 0.00 | 78 | 1025.0 |
| 20260509003529 | 53 | 305 | 2.0 | 4.0 | 0.00 | 0.00 | 0.00 | 81 | 1025.0 |
| 20260509002531 | 52 | 298 | 2.0 | 5.0 | 0.00 | 0.00 | 0.00 | 83 | 1025.1 |
| 20260509001520 | 51 | 63 | 2.0 | 5.0 | 0.00 | 0.00 | 0.00 | 86 | 1025.1 |
| 20260509000530 | 51 | 61 | 2.0 | 4.0 | 0.00 | 0.00 | 0.00 | 90 | 1025.1 |
| 20260508235519 | 49 | 183 | 2.0 | 3.0 | 0.00 | 0.00 | 0.00 | 91 | 1025.4 |
| 20260508234529 | 49 | 54 | 2.0 | 4.0 | 0.00 | 0.00 | 0.00 | 93 | 1025.3 |
| 20260508233517 | 49 | 57 | 2.0 | 5.0 | 0.00 | 0.00 | 0.00 | 94 | 1025.2 |
| 20260508232527 | 50 | 68 | 3.0 | 6.0 | 0.00 | 0.00 | 0.00 | 92 | 1025.3 |
| 20260508231536 | 49 | 106 | 2.0 | 5.0 | 0.00 | 0.00 | 0.00 | 93 | 1025.4 |
| 20260508230525 | 49 | 117 | 3.0 | 6.0 | 0.00 | 0.00 | 0.00 | 95 | 1025.2 |
| 20260508225534 | 48 | 83 | 3.0 | 5.0 | 0.00 | 0.00 | 0.00 | 96 | 1025.2 |
| 20260508224538 | 47 | 67 | 3.0 | 4.0 | 0.00 | 0.00 | 0.00 | 97 | 1025.2 |
| 20260508222522 | 46 | 59 | 4.0 | 6.0 | 0.00 | 0.00 | 0.00 | 97 | 1025.0 |
| 20260508221531 | 46 | 81 | 2.0 | 5.0 | 0.00 | 0.00 | 0.00 | 97 | 1024.9 |
| 20260508220520 | 45 | 104 | 2.0 | 3.0 | 0.00 | 0.00 | 0.00 | 96 | 1024.8 |
| 20260508215543 | 44 | 96 | 1.0 | 3.0 | 0.00 | 0.00 | 0.00 | 96 | 1024.6 |
| 20260508214518 | 43 | 353 | 0.0 | 2.0 | 0.00 | 0.00 | 0.00 | 96 | 1024.7 |
| 20260508213528 | 43 | 349 | 1.0 | 2.0 | 0.00 | 0.00 | 0.00 | 97 | 1024.5 |
| 20260508212517 | 44 | 333 | 1.0 | 2.0 | 0.00 | 0.00 | 0.00 | 97 | 1024.3 |
| 20260508211526 | 45 | 210 | 1.0 | 2.0 | 0.00 | 0.00 | 0.00 | 97 | 1024.3 |
| 20260508210535 | 46 | 204 | 0.0 | 2.0 | 0.00 | 0.00 | 0.00 | 95 | 1024.0 |
| 20260508205526 | 45 | 177 | 1.0 | 2.0 | 0.00 | 0.00 | 0.00 | 96 | 1023.9 |
| 20260508204534 | 45 | 195 | 3.0 | 5.0 | 0.00 | 0.00 | 0.00 | 96 | 1023.6 |
| 20260508203523 | 45 | 139 | 2.0 | 4.0 | 0.00 | 0.00 | 0.00 | 96 | 1023.3 |
| 20260508202533 | 45 | 138 | 2.0 | 3.0 | 0.00 | 0.00 | 0.00 | 96 | 1023.3 |
| 20260508201522 | 45 | 154 | 2.0 | 4.0 | 0.00 | 0.00 | 0.00 | 96 | 1023.1 |
| 20260508200531 | 45 | 57 | 1.0 | 3.0 | 0.00 | 0.00 | 0.00 | 96 | 1023.0 |
| 20260508195520 | 45 | 48 | 1.0 | 3.0 | 0.00 | 0.00 | 0.00 | 96 | 1022.8 |
| 20260508194531 | 46 | 352 | 1.0 | 2.0 | 0.00 | 0.00 | 0.00 | 96 | 1022.8 |
| 20260508193518 | 46 | 164 | 1.0 | 2.0 | 0.00 | 0.00 | 0.00 | 96 | 1022.5 |